SCRM

Details ICAO SCRM
Name TENIENTE RODOLFO MARSH MARTIN
Region Chile
Timezone uninhabited (UTC+0.0)
Plans Departing 49
Arriving 53
Stats Elevation 147 ft / 45 m (AMSL)
Location -62.190905° -58.987224°
Runways 1
Magnetic Variation 10.805° E
Sunrise 2018-05-22 12:42:55 UTC / 2018-05-22 12:42:55 Local
Sunset 2018-05-22 19:05:12 UTC / 2018-05-22 19:05:12 Local
Advertisement - Login to hide

Runways

ID Width Length Bearing (true) Bearing (mag) Surface Threshold Offset Overrun Length
11 210 ft / 64 m 4,227 ft / 1,288 m 116.91° 106.10° Dirt 0 ft / 0 m 0 ft / 0 m
29 210 ft / 64 m 4,227 ft / 1,288 m 296.89° 286.08° Dirt 0 ft / 0 m 0 ft / 0 m

Map

Weather


0- 5 10 15 20 25 30 35+ Temperature / ° C

Clouds and Precipitation
Forecast for 2018-05-22 18:00 UTC. Updated 3 hours ago

Ground ~20,000 ft ~40,000 ft Winds

METAR

SCRM 222000Z 27016KT 8000 OVC004 M01/M01 Q0990

TAF

Not found

Frequencies

Tower 118.10 MHz TWR
Approach 119.70 MHz MARSH APP
Approach 118.10 MHz MARSH APP
Warning: Do not use this data for real-world aviation or navigation. No guarantee of current accuracy is given.